Вернуться в каталог

CZ-6A DEB

АктивенSSO
NORAD 54285·DEBRIS·🇨🇳 China

Запущен Nov 11, 2022 с Taiyuan Satellite Launch Center

Loading…

Ближайшие Пролёты (ближайшие 24 часа)

TLE

СвежийSource: Space-Track

Эпоха: Sep 14, 2026, 10:23 UTC

1 54285U 22151AC  26257.43270502  .00001421  00000-0  78250-3 0  9993
2 54285  98.8655 251.4728 0071830 112.6464 248.2324 14.11890574196662

Отслеживайте CZ-6A DEB в реальном времени с AllMySat

Download on the App Store